Погода в Сивашовке

Украина / Херсонская область     46°15′15″N   34°25′51″E
темп.,
°C
ветер,
м/с
пор.,
м/с
влажн.,
%
обл.,
%
осадки,
мм/ч
давл.,
гПа
погр.,
м
11 мая, вт
вт1100:00+9зсз4105591 0.0 1019185
03:00+10зсз61362100 0.0 1017340
06:00+10сз71275100 0.3 1016708
09:00+12сз6979100 0.4 1015590
12:00+16ссз81063100 0.0 10141247
15:00+15ссв4776100 0.3 1013604
18:00+13св477612 0.9 1014776
21:00+10всв487371 0.9 1015227
12 мая, ср
ср1200:00+7ссв33771 0.0 101423
03:00+6ссв33825 0.0 101432
06:00+6св22865 0.0 101436
09:00+12юв11615 0.0 1013764
12:00+15ю435034 0.0 10131555
15:00+16ююз344616 0.0 10131623
18:00+15ююв32568 0.0 1013850
21:00+11вюв34821 0.0 101349
13 мая, чт
чт1300:00+10в33904 0.0 101334
03:00+10всв22945 0.0 101231
06:00+10всв339312 0.0 101249
09:00+17вюв4565100 0.0 1012677
12:00+19вюв6752100 0.0 1012780
15:00+20вюв7857100 0.0 1011698
18:00+18вюв68665 0.0 1010389
21:00+14в489165 0.0 1010131
14 мая, пт
пт1400:00+14юв34920 0.0 100952
03:00+13з22895 0.0 100918
06:00+12сз338796 0.0 101057
09:00+19сз2254100 0.0 1010351
12:00+23юз3237100 0.0 1010747
15:00+25ююз333445 0.0 1010828
18:00+23ююв334399 0.0 1010334
21:00+16зюз23670 0.0 101027
15 мая, сб
сб1500:00+15зюз488333 0.0 1011145
03:00+14зюз488337 0.0 1012162
06:00+14зюз369447 0.0 1012151
09:00+18зюз4668100 0.0 1013395
12:00+22зюз56536 0.0 1013983
15:00+24зюз564415 0.0 10131787
18:00+21ююз455876 0.0 1013437
21:00+17зюз2270100 0.0 101321